This demonstration page uses our WeatherBlox Daily Observations layout. Learn more.

Left ArrowRight Arrow

38.20091, -84.87328

Hourly Observations for July 23, 2022

Temp ( °F °C ) Dew Point ( °F °C ) Humidity (%) Winds ( mph kmh ) Pressure ( in mb ) Visibility ( mi km ) Precip ( " mm )
12:53 am 00:53 Clear 74 23.3 70 21.1 88 88 Calm 30.03 1017 10 16 0.00 0.00
1:53 am 01:53 Clear 73 22.8 70 21.1 90 90 Calm 30.03 1017 10 16 0.00 0.00
2:53 am 02:53 Clear 72 22.2 69 20.6 91 91 Calm 30.01 1016 10 16 0.00 0.00
3:53 am 03:53 Clear 72 22.2 68 20 87 87 Calm 30.01 1016 10 16 0.00 0.00
4:53 am 04:53 Clear 71 21.7 67 19.4 87 87 Calm 30.01 1016 10 16 0.00 0.00
5:53 am 05:53 Clear 70 21.1 67 19.4 90 90 Calm 30.02 1017 10 16 0.00 0.00
6:53 am 06:53 Sunny 69 20.6 67 19.4 93 93 Calm 30.03 1017 9 14 0.00 0.00
7:53 am 07:53 Sunny 74 23.3 69 20.6 85 85 Calm 30.04 1017 10 16 0.00 0.00
8:53 am 08:53 Sunny 79 26.1 71 21.7 77 77 SSW 7 11 30.05 1018 10 16 0.00 0.00
9:53 am 09:53 Sunny 83 28.3 73 22.8 72 72 SW 7 11 30.06 1018 10 16 0.00 0.00
10:53 am 10:53 Sunny 86 30 74 23.3 67 67 SW 8 13 30.06 1018 10 16 0.00 0.00
11:53 am 11:53 Sunny 88 31.1 74 23.3 63 63 SW 12 19 30.06 1018 10 16 0.00 0.00
12:53 pm 12:53 Sunny 91 32.8 74 23.3 57 57 WSW 8 13 30.05 1018 10 16 0.00 0.00
1:53 pm 13:53 Partly Cloudy 91 32.8 73 22.8 56 56 NW 6 9 30.07 1018 10 16 0.00 0.00
2:53 pm 14:53 Sunny 89 31.7 73 22.8 59 59 N 12 19 30.06 1018 10 16 0.00 0.00
3:53 pm 15:53 Sunny 90 32.2 72 22.2 56 56 NNE 6 9 30.04 1017 10 16 0.00 0.00
4:53 pm 16:53 Sunny 91 32.8 73 22.8 56 56 ENE 5 7 30.02 1017 10 16 0.00 0.00
5:53 pm 17:53 Sunny 91 32.8 74 23.3 57 57 E 5 7 30.02 1017 10 16 0.00 0.00
6:53 pm 18:53 Sunny 91 32.8 74 23.3 57 57 E 6 9 30.01 1016 10 16 0.00 0.00
7:53 pm 19:53 Sunny 89 31.7 74 23.3 61 61 E 5 7 30.02 1017 10 16 0.00 0.00
8:53 pm 20:53 Sunny 86 30 73 22.8 65 65 ESE 7 11 30.01 1016 10 16 0.00 0.00
9:53 pm 21:53 Clear 84 28.9 73 22.8 70 70 SE 7 11 30.03 1017 10 16 0.00 0.00
10:53 pm 22:53 Clear 82 27.8 73 22.8 74 74 SSE 8 13 30.03 1017 10 16 0.00 0.00
11:53 pm 23:53 Clear 82 27.8 74 23.3 77 77 S 7 11 30.03 1017 10 16 0.00 0.00

Powered by AerisWeather